Other Public Products
Issued by NWS Grand Forks, ND

Home | Current Version | Previous Version | Text Only | Print | Product List | Glossary On
Versions: 1 2 3 4 5 6 7 8 9 10 11 12 13 14 15 16 17 18 19 20 21 22 23 24 25 26 27 28 29 30 31 32 33 34 35 36 37 38 39 40 41 42 43 44 45 46 47 48 49 50
000
FPUS83 KFGF 260531
OPUFGF
PRAIRIE TO PINES WEATHER ROUNDUP
NATIONAL WEATHER SERVICE EASTERN NORTH DAKOTA/GRAND FORKS ND
1200 AM CDT SAT JUL 26 2014

 **SATELLITE DATA USED TO AUGMENT SKY COVER AT AUTOMATED STATIONS**
 *****  WEATHER ACROSS EASTERN NORTH DAKOTA  *****

CITY           SKY/WX    TMP DP  RH WIND       PRES   REMARKS
GRAND FORKS    CLEAR     60  57  89 SW7       29.77S
GRAND FORKS AF CLEAR     61  60  95 S6        29.79S
GRAND CITY NWS   N/A     63 N/A N/A W2          N/A
BUXTON           N/A     65  61  85 SW3         N/A
DEVILS LAKE    CLEAR     63  55  77 S5        29.79S
FARGO          CLEAR     62  56  80 CALM      29.81S
WAHPETON ARPT  CLEAR     61  54  77 CALM      29.83S
$$

 *****  WEATHER ACROSS CENTRAL AND WESTERN NORTH DAKOTA  *****

CITY           SKY/WX    TMP DP  RH WIND       PRES   REMARKS
JAMESTOWN      CLEAR     61  56  83 SE5       29.82S
BISMARCK       CLEAR     60  55  83 SE7       29.81R
MINOT          CLEAR     64  56  75 SE3       29.76F
MINOT AFB      CLEAR     62  60  94 S5        29.75F
GARRISON         N/A     60  57  89 CALM      29.79R
WILLISTON      CLEAR     61  50  67 N9        29.84R
DICKINSON      CLEAR     66  52  60 SW10      29.84R
HETTINGER      CLEAR     62  50  64 S6        29.87S
$$

 *****  OTHER OBSERVATIONS NORTHEAST NORTH DAKOTA  *****

CITY           SKY/WX    TMP DP  RH WIND       PRES   REMARKS
WALHALLA         N/A     63  57  82 CALM        N/A
LANGDON        FAIR      55  54  94 SW9       29.78F
CAVALIER       FAIR      63  55  77 SW7       29.76S
GRAFTON        FAIR      57  55  94 SW8       29.76S
CANDO          FAIR      61  57  88 S10       29.79S
FORT TOTTEN      N/A     63  53  69 SE3       29.95
ROLLA          FAIR      57  57 100 SW8       29.79S
RUGBY          FAIR      63  57  82 S8        29.78S
 ***** THE ABOVE OBSERVATIONS ARE NON NWS ARE NOT QUALITY
        CONTROLLED AND MAY MIS-REPORT RAIN FOR SNOW...
$$

 *****  OTHER OBSERVATIONS SOUTHEAST NORTH DAKOTA *****

CITY           SKY/WX    TMP DP  RH WIND       PRES   REMARKS
COOPERSTOWN    NOT AVBL
VALLEY CITY    FAIR      59  59 100 S3        29.83S
OAKES          NOT AVBL
GWINNER          N/A     63  63 100 CALM      29.84F
SHEYENNE NWR     N/A     57  56  97 CALM      29.95
BUFFALO        NOT AVBL
WYNDMERE       NOT AVBL
 ***** THE ABOVE OBSERVATIONS ARE NON NWS ARE NOT QUALITY
       CONTROLLED AND MAY MIS-REPORT RAIN FOR SNOW...
$$

  *****  WEATHER ACROSS NORTHERN MINNESOTA  *****

CITY           SKY/WX    TMP DP  RH WIND       PRES   REMARKS
FLAG ISLAND    CLEAR     68  54  60 W8        29.71F
WARROAD        CLEAR     63  57  82 SW7       29.75S
ROSEAU         CLEAR     61  55  82 SW6       29.75S
HALLOCK        CLEAR     61  55  82 CALM      29.74S
THF RVR FALLS  CLEAR     61  57  88 CALM      29.78F
HALSTAD          N/A     58  54  86 SW5         N/A
FOSSTON        CLEAR     57  54  88 S5        29.81F
BAUDETTE       CLEAR     63  54  72 W3        29.76R
WASKISH        CLEAR     70  61  73 W8        29.77S
CROOKSTON      CLEAR     61  55  82 SW6       29.79S
$$
  *****  WEATHER ACROSS CENTRAL AND WEST MINNESOTA  *****

CITY           SKY/WX    TMP DP  RH WIND       PRES   REMARKS
BEMIDJI        CLEAR     64  55  75 W5        29.81R
PARK RAPIDS    PTCLDY    64  61  90 W7        29.83R
WADENA         PTCLDY    64  59  82 NW5       29.84R
DETROIT LAKES  CLEAR     63  57  82 CALM      29.84F
MOORHEAD       CLEAR     66  61  82 CALM      29.82S
FERGUS FALLS   CLEAR     66  54  63 NE3       29.83S
ELBOW LAKE     FAIR      67  64  87 N5        29.84S
MORRIS MN      PTCLDY    66  66 100 NW3       29.84R FOG
STAPLES        PTCLDY    66  64  94 W6        29.83R
WHEATON        CLEAR     66  64  94 CALM      29.85S
$$
  *****  WEATHER ELSEWHERE ACROSS MINNESOTA  *****

CITY           SKY/WX    TMP DP  RH WIND       PRES   REMARKS
DULUTH         CLOUDY    70  66  87 SW9       29.79R
INTRNTL FALLS  MOCLDY    67  65  93 W6        29.72F
ELY            CLOUDY    66  64  94 SW5       29.77S
CLOQUET        CLOUDY    70  66  88 SW6       29.80R
BRAINERD       MOCLDY    69  67  93 SW5       29.81R
HIBBING        PTCLDY    65  63  93 CALM      29.78S FOG
ALEXANDRIA     MOCLDY    69  67  93 W5        29.86R
SAINT CLOUD    CLEAR     72  70  94 CALM      29.81R FOG
MINNEAPOLIS    CLOUDY    77  69  76 SW6       29.80S
$$

  *****  WEATHER ACROSS SOUTH DAKOTA  *****

CITY           SKY/WX    TMP DP  RH WIND       PRES   REMARKS
SIOUX FALLS    MOCLDY    72  69  90 CALM      29.84S
BROOKINGS      NOT AVBL
WATERTOWN      PTCLDY    65  65 100 CALM      29.88R FOG
HURON          PTCLDY    64  62  93 NW5       29.86R
SISSETON         N/A     64  63  96 N5        29.84R
ABERDEEN       CLEAR     56  55  97 S5        29.85S
MITCHELL       PTCLDY    71  67  87 NW5       29.85R
PIERRE         MOCLDY    70  66  87 E10       29.81F
MOBRIDGE       CLEAR     63  56  78 SE8       29.83S
RAPID CITY     CLEAR     64  53  67 N7        29.87F
$$

  *****  SOME WEATHER IN NEARBY STATES *****

CITY           SKY/WX    TMP DP  RH WIND       PRES   REMARKS
GLASGOW MT     CLEAR     61  48  62 W15       29.89R
GREAT FALLS MT CLEAR     63  36  36 W12       30.02R
CHEYENNE WY    MOCLDY    68  54  60 SW14      30.12S
SCOTTSBLUFF NE MOCLDY    69  61  75 E9        29.93F
OMAHA NE       MOCLDY    79  72  79 NE3       29.79R
DES MOINES IA  PTCLDY    75  70  84 E7        29.79S
DAVENPORT IA   MOCLDY    68  62  81 SE13      29.88S
CHICAGO IL     MOCLDY    70  57  63 SW8       29.92S
EAU CLAIRE WI  CLOUDY    70  67  90 S9        29.83F
LA CROSSE WI   CLOUDY    69  65  86 S9        29.86R
$$

  *****  SOME NATIONAL WEATHER *****

CITY           SKY/WX    TMP DP  RH WIND       PRES   REMARKS
LA GUARDIA NY  MOCLDY    73  60  63 SW10      29.99F
RALEIGH NC     PTCLDY    72  67  84 S3        30.04F
ATLANTA GA     PTCLDY    76  67  73 CALM      30.05R
NEW ORLEANS LA MOCLDY    80  75  84 SW5       30.03S
OKLAHOMA CITY  PTCLDY    82  64  54 S9        29.92R
ALBUQUERQUE NM PTCLDY    84  43  23 S7        30.12R
SALT LAKE CITY PTCLDY    80  42  25 SE7       29.99R
LOS ANGELES CA PTCLDY    70  63  78 W6        29.92R
BOISE ID       CLEAR     72  26  18 S3        30.00R
SEATTLE WA     CLEAR     62  51  67 N7        30.11R
$$

*** WEATHER ACROSS MANITOBA...SASKATCHEWAN AND ONTARIO ***
                ***ONTARIO***

CITY           SKY/WX    TMP DP  RH WIND       PRES   REMARKS
GERALDTON      PTCLDY    61  59  94 SW3       29.74R
THUNDER BAY    MOCLDY    57  57 100 E3        29.75S
SIOUX LOOKOUT  CLOUDY    68  64  88 S3        29.71S
TORONTO        PTCLDY    64  54  68 SW9       29.96S
BIG TROUT LK   MOCLDY    54  48  82 E8        29.83R
PICKLE LAKE    NOT AVBL
DRYDEN         TSTM      68  64  88 S5        29.70S
KENORA         MOCLDY    64  63  94 W3        29.73S
$$
                *** MANITOBA***

CITY           SKY/WX    TMP DP  RH WIND       PRES   REMARKS
BRANDON        MOCLDY    63  55  77 SW8       29.72F
DAUPHIN        CLEAR     59  52  77 VRB2      29.67S
ISLAND LAKE    PTCLDY    61  54  77 E12       29.77R
PILOT MOUND      N/A     52  50  93 S7          N/A
THE PAS        CLOUDY    63  63 100 E7        29.67R
THOMPSON       PTCLDY    59  52  77 E14G20    29.83R
WINNIPEG       CLEAR     63  54  72 SW7       29.72S
LYNN LAKE      CLEAR     63  52  67 E14       29.84R
CHURCHILL      FOG       45  45 100 E10G17    30.03R VSB 1/4
GILLAM         MOCLDY    50  48  93 NE12      29.91R
$$
                ***SASKATCHEWAN***

CITY           SKY/WX    TMP DP  RH WIND       PRES   REMARKS
ESTEVAN        PTCLDY    55  54  94 S3        29.78F
KINDERSLEY     MOCLDY    57  52  82 W12       29.78R
LLOYDMINSTER   PTCLDY    54  52  94 W13       29.77R
PRINCE ALBERT  LGT RAIN  57  55  94 NE7       29.62R
REGINA         MOCLDY    57  54  88 SW15      29.67S


USA.gov is the U.S. government's official web portal to all federal, state and local government web resources and services.